[[{"header":{"parameterUnit":"m.s-1","parameterCategory":1,"la1":30.2991,"la2":30.254,"lo1":-89.0895,"lo2":-89.0444,"dy":0.0017,"dx":0.0017,"nx":28,"ny":28,"refTime":"2025-08-25T21:00:00:Z","depth":0,"parameterNumber":2,"parameterNumberName":"U-component_of_WINDS"},"data":[0,0,0,0,0,0,0,0,0,0,0,0,0,0,0,0,0,0,0,0,0,0,0,0,0,0,0,0,0,0,0,0,0,0,0,0,0,0,0,0,0,0,0,0,0,0,0,0,0,0,0,0,0,0,0,0,0,0,-2.6162,-2.6163,0,-2.6229,-2.623,-2.6231,-2.6173,-2.6171,-2.6168,-2.6166,-2.6234,-2.6238,-2.6242,0,0,0,0,0,0,0,0,0,0,0,0,0,-2.5984,-2.5987,-2.6162,-2.6163,-2.6164,-2.6229,-2.623,-2.6231,-2.6173,-2.617,-2.6168,-2.6165,-2.6233,-2.6238,-2.6242,0,0,0,0,0,0,0,0,0,0,0,0,0,-2.6057,-2.5989,-2.6162,-2.6143,-2.6142,-2.6229,-2.623,-2.6231,-2.6174,-2.617,-2.6167,-2.6163,-2.6231,-2.6237,-2.6243,-2.6352,0,0,-2.6262,-2.6264,0,0,0,0,0,0,0,0,-2.6053,-2.6064,-2.6145,-2.6145,-2.6144,-2.6189,-2.6192,-2.6272,-2.6175,-2.6162,-2.6166,-2.6162,-2.6222,-2.6229,-2.6249,-2.6355,-2.6358,-2.6262,-2.6266,-2.6268,-2.627,0,0,0,0,0,0,0,-2.6048,-2.606,-2.6189,-2.6146,-2.6145,-2.6131,-2.6137,-2.6207,-2.6211,-2.6163,-2.6159,-2.6167,-2.6221,-2.6243,-2.625,-2.6359,-2.6262,-2.6267,-2.6271,-2.6273,-2.6556,-2.6559,0,0,0,0,0,0,-2.6045,-2.6057,-2.6187,-2.6191,-2.6089,-2.6137,-2.6144,-2.6178,-2.621,-2.6212,-2.617,-2.6164,-2.6235,-2.6243,-2.6252,-2.638,-2.6268,-2.6274,-2.6277,-2.6552,-2.6556,-2.6561,0,0,0,0,0,0,-2.6041,-2.6057,-2.6184,-2.6123,-2.6138,-2.6144,-2.6182,-2.6181,-2.6203,-2.6216,-2.6216,-2.6193,-2.6232,-2.6244,-2.6327,-2.6382,-2.6277,-2.6282,-2.6547,-2.6553,-2.6559,-2.6638,0,0,0,0,0,0,-2.6037,-2.6056,-2.6098,-2.6124,-2.6141,-2.6258,-2.6186,-2.6185,-2.6214,-2.6207,-2.6237,-2.6238,-2.623,-2.6318,-2.6333,-2.6388,-2.6287,-2.6542,-2.655,-2.6557,-2.6631,-2.6646,-2.6659,0,0,0,0,0,-2.603,-2.6118,-2.61,-2.6116,-2.6194,-2.6262,-2.6271,-2.626,-2.6219,-2.626,-2.6268,-2.6237,-2.6374,-2.6327,-2.6344,-2.6401,-2.6539,-2.6548,-2.6556,-2.6624,-2.6643,-2.6659,0,0,0,0,0,0,-2.6099,-2.6121,-2.6102,-2.6201,-2.623,-2.6252,-2.6304,-2.6281,-2.6322,-2.6313,-2.6298,-2.6305,-2.6393,-2.6405,-2.6353,-2.6507,-2.6449,-2.6462,-2.6496,-2.6514,-2.6528,-2.6522,-2.6292,0,0,0,0,0,-2.6125,-2.6179,-2.6196,-2.6281,-2.6297,-2.6298,-2.6327,-2.6316,-2.6345,-2.6357,-2.6371,-2.6401,-2.645,-2.6482,-2.6529,-2.6632,-2.6637,-2.668,-2.6694,-2.6706,-2.6716,-2.677,-2.6789,-2.6589,-2.6589,-2.6589,0,0,-2.6181,-2.62,-2.6234,-2.6295,-2.6316,-2.6371,-2.6309,-2.637,-2.6411,-2.6367,-2.6446,-2.6457,-2.6489,-2.6582,-2.6624,-2.6595,-2.6773,-2.6717,-2.6726,-2.673,-2.6781,-2.68,-2.6817,-2.6595,-2.6594,-2.6593,0,0,-2.6309,-2.633,-2.6403,-2.6425,-2.6457,-2.6457,-2.6475,-2.6501,-2.6506,-2.6585,-2.6553,-2.6601,-2.6686,-2.671,-2.6733,-2.6869,-2.6842,-2.6885,-2.6959,-2.7012,-2.7027,-2.7041,-2.7088,-2.7105,-2.6895,-2.6896,-2.6896,0,-2.6374,-2.6456,-2.6443,-2.6506,-2.6533,-2.6496,-2.6569,-2.6591,-2.6637,-2.6656,-2.6624,-2.6729,-2.6748,-2.6846,-2.6879,-2.6899,-2.6918,-2.6881,-2.7026,-2.704,-2.7053,-2.7097,-2.7115,-2.6901,-2.69,-2.69,-2.6899,0,-2.6533,-2.6591,-2.6646,-2.669,-2.6724,-2.6792,-2.6788,-2.6823,-2.6809,-2.6813,-2.6893,-2.6914,-2.6963,-2.6985,-2.6973,-2.7081,-2.7062,-2.7028,-2.697,-2.7077,-2.7118,-2.7136,-2.6908,-2.6906,-2.6904,-2.6903,0,0,-2.6707,-2.6743,-2.6763,-2.6782,-2.6815,-2.6859,-2.6925,-2.6972,-2.7002,-2.7035,-2.7089,-2.7162,-2.713,-2.7156,-2.7146,-2.7192,-2.7297,-2.7152,-2.7153,-2.7177,-2.7416,-2.744,-2.746,-2.7279,-2.7283,-2.7285,-2.7413,0,-2.6836,-2.695,-2.694,-2.7048,-2.71,-2.7064,-2.7121,-2.7147,-2.7152,-2.7196,-2.7201,-2.7253,-2.7208,-2.7223,-2.7268,-2.7275,-2.7345,-2.7266,-2.7328,-2.7331,-2.732,-2.7482,-2.7508,-2.7627,-2.7429,-2.7432,-2.7434,0,-2.7002,-2.704,-2.7153,-2.7176,-2.7198,-2.7249,-2.7291,-2.7334,-2.7362,-2.7362,-2.7391,-2.7372,-2.7437,-2.7378,-2.7467,-2.7414,-2.7438,-2.7446,-2.745,-2.7454,-2.7388,-2.7489,-2.7665,-2.7682,-2.746,-2.7458,-2.7456,0,-2.7115,-2.7195,-2.7272,-2.729,-2.732,-2.7356,-2.737,-2.7395,-2.7424,-2.7461,-2.7479,-2.7523,-2.7547,-2.7581,-2.7574,-2.7532,-2.7664,-2.7604,-2.7664,-2.7665,-2.7693,-2.7691,-2.7874,-2.7712,-2.7712,-2.7711,-2.7711,0,-2.7259,-2.7329,-2.7323,-2.7371,-2.7448,-2.7435,-2.7511,-2.7521,-2.7543,-2.7591,-2.7564,-2.7609,-2.7598,-2.7643,-2.7638,-2.7711,-2.7723,-2.7724,-2.7721,-2.7725,-2.7725,-2.774,-2.7731,-2.7716,-2.7715,-2.7714,-2.7713,0,-2.7398,-2.7397,-2.7479,-2.75,-2.7507,-2.7563,-2.758,-2.7625,-2.7627,-2.7688,-2.7702,-2.7705,-2.7757,-2.7754,-2.7812,-2.7808,-2.7898,-2.7887,-2.7888,-2.7885,-2.7945,-2.7939,-2.8142,-2.8168,-2.7992,-2.7993,-2.7995,0,-2.7489,-2.7542,-2.7569,-2.7599,-2.7615,-2.7665,-2.7693,-2.7683,-2.7714,-2.7749,-2.7789,-2.7838,-2.7876,-2.796,-2.7968,-2.8012,-2.8,-2.8069,-2.8006,-2.8008,-2.7999,-2.7995,-2.7999,-2.808,-2.8082,-2.8084,-2.8085,0,-2.765,-2.7647,-2.769,-2.7733,-2.7768,-2.7801,-2.7831,-2.7858,-2.785,-2.7886,-2.7938,-2.7968,-2.8027,-2.8075,-2.8117,-2.8131,-2.8106,-2.8105,-2.8121,-2.8124,-2.8122,-2.8122,-2.792,-2.81,-2.8098,-2.8097,-2.8096,-2.8096,-2.7767,-2.7811,-2.7837,-2.7885,-2.7907,-2.7935,-2.7977,-2.7985,-2.8028,-2.8075,-2.8066,-2.8124,-2.815,-2.8203,-2.8221,-2.8266,-2.8241,-2.8265,-2.827,-2.8276,-2.8281,-2.8117,-2.8274,-2.8273,-2.8273,-2.8272,-2.8272,0,-2.7925,-2.7939,-2.7984,-2.8026,-2.8064,-2.8039,-2.807,-2.8103,-2.8155,-2.8181,-2.8219,-2.8278,-2.8325,-2.8336,-2.838,-2.8414,-2.8403,-2.8425,-2.8422,-2.8425,-2.8302,-2.8283,-2.8433,-2.8433,-2.8433,-2.8433,-2.8433,-2.8433,-2.8011,-2.8085,-2.8084,-2.8168,-2.8182,-2.8238,-2.8258,-2.8284,-2.8305,-2.8372,-2.841,-2.8417,-2.8437,-2.8482,-2.8523,-2.8525,-2.8542,-2.8568,-2.8565,-2.845,-2.8434,-2.8418,-2.84,-2.8572,-2.8572,-2.8684,-2.8685,-2.8686]},{"header":{"parameterUnit":"m.s-1","parameterCategory":1,"la1":30.2991,"la2":30.254,"lo1":-89.0895,"lo2":-89.0444,"dy":0.0017,"dx":0.0017,"nx":28,"ny":28,"refTime":"2025-08-25T21:00:00:Z","depth":0,"parameterNumber":3,"parameterNumberName":"V-component_of_WINDS"},"data":[0,0,0,0,0,0,0,0,0,0,0,0,0,0,0,0,0,0,0,0,0,0,0,0,0,0,0,0,0,0,0,0,0,0,0,0,0,0,0,0,0,0,0,0,0,0,0,0,0,0,0,0,0,0,0,0,0,0,-2.7872,-2.7873,0,-2.7939,-2.794,-2.7941,-2.7934,-2.7933,-2.7932,-2.7931,-2.7996,-2.7998,-2.8001,0,0,0,0,0,0,0,0,0,0,0,0,0,-2.7735,-2.7737,-2.7872,-2.7873,-2.7874,-2.7939,-2.794,-2.7941,-2.7934,-2.7933,-2.7932,-2.7931,-2.7995,-2.7998,-2.8001,0,0,0,0,0,0,0,0,0,0,0,0,0,-2.7797,-2.7738,-2.7872,-2.7879,-2.788,-2.7939,-2.794,-2.7941,-2.7935,-2.7933,-2.7931,-2.793,-2.7994,-2.7998,-2.8002,-2.8058,0,0,-2.8014,-2.8016,0,0,0,0,0,0,0,0,-2.7794,-2.7802,-2.7877,-2.7878,-2.788,-2.7927,-2.7915,-2.798,-2.7935,-2.7914,-2.7931,-2.7929,-2.7974,-2.7979,-2.7995,-2.8061,-2.8064,-2.8014,-2.8017,-2.8019,-2.802,0,0,0,0,0,0,0,-2.7789,-2.7799,-2.7899,-2.7878,-2.788,-2.7877,-2.7884,-2.7928,-2.7951,-2.7915,-2.7915,-2.7923,-2.7974,-2.7991,-2.7997,-2.8064,-2.8014,-2.8018,-2.802,-2.8022,-2.8177,-2.8179,0,0,0,0,0,0,-2.7784,-2.7796,-2.7897,-2.7901,-2.7832,-2.7881,-2.7889,-2.7913,-2.7951,-2.7955,-2.7925,-2.7923,-2.7985,-2.7992,-2.7999,-2.8066,-2.8019,-2.8022,-2.8025,-2.8176,-2.8178,-2.8179,0,0,0,0,0,0,-2.7781,-2.7793,-2.7894,-2.7848,-2.7861,-2.7885,-2.7912,-2.7915,-2.7932,-2.7958,-2.7962,-2.7938,-2.7984,-2.7993,-2.8043,-2.8068,-2.8024,-2.8028,-2.8174,-2.8176,-2.8179,-2.82,0,0,0,0,0,0,-2.7777,-2.7792,-2.7815,-2.7849,-2.7863,-2.7938,-2.7914,-2.7918,-2.794,-2.7938,-2.7972,-2.7976,-2.7984,-2.8037,-2.8047,-2.8073,-2.8031,-2.8171,-2.8175,-2.8178,-2.8198,-2.8203,-2.8208,0,0,0,0,0,-2.7772,-2.7818,-2.7816,-2.7828,-2.7892,-2.794,-2.7948,-2.7957,-2.7942,-2.7964,-2.798,-2.7974,-2.8064,-2.8042,-2.8053,-2.8081,-2.817,-2.8174,-2.8177,-2.8195,-2.8202,-2.8208,0,0,0,0,0,0,-2.7785,-2.7822,-2.7821,-2.7879,-2.7906,-2.7938,-2.7967,-2.7965,-2.7996,-2.7993,-2.8003,-2.801,-2.806,-2.8075,-2.8051,-2.8136,-2.8115,-2.8121,-2.8124,-2.8131,-2.8136,-2.8131,-2.8034,0,0,0,0,0,-2.7794,-2.7831,-2.7861,-2.791,-2.7924,-2.7943,-2.7964,-2.7969,-2.7997,-2.8008,-2.8028,-2.8055,-2.8089,-2.8111,-2.8144,-2.82,-2.8206,-2.8224,-2.8229,-2.8234,-2.8239,-2.8268,-2.8276,-2.8192,-2.8192,-2.8192,0,0,-2.7814,-2.7839,-2.7862,-2.7913,-2.7935,-2.7971,-2.7953,-2.7992,-2.8018,-2.8014,-2.8062,-2.8078,-2.8108,-2.8161,-2.8185,-2.8175,-2.8263,-2.8239,-2.8242,-2.8245,-2.8273,-2.8281,-2.8288,-2.8195,-2.8194,-2.8194,0,0,-2.7869,-2.7893,-2.7935,-2.7957,-2.7991,-2.8003,-2.8013,-2.8046,-2.8056,-2.8105,-2.8102,-2.8133,-2.8192,-2.8213,-2.8231,-2.8293,-2.8289,-2.8304,-2.8332,-2.836,-2.8367,-2.8373,-2.8393,-2.8401,-2.8309,-2.8309,-2.8309,0,-2.7889,-2.7945,-2.7956,-2.7996,-2.8018,-2.8017,-2.8058,-2.8079,-2.8121,-2.8135,-2.8124,-2.8197,-2.8217,-2.8274,-2.8289,-2.8305,-2.8315,-2.83,-2.8365,-2.8371,-2.8377,-2.8397,-2.8404,-2.831,-2.831,-2.831,-2.831,0,-2.7968,-2.8007,-2.8036,-2.8078,-2.8103,-2.8144,-2.8159,-2.8183,-2.8186,-2.8199,-2.8248,-2.8272,-2.8309,-2.8323,-2.8326,-2.838,-2.8373,-2.8363,-2.8342,-2.8386,-2.8405,-2.8413,-2.8313,-2.8312,-2.8312,-2.8311,0,0,-2.8032,-2.8079,-2.809,-2.8108,-2.8145,-2.8174,-2.8214,-2.8251,-2.8271,-2.83,-2.8332,-2.8382,-2.8373,-2.8394,-2.8399,-2.8424,-2.847,-2.8411,-2.8412,-2.842,-2.8529,-2.8535,-2.8544,-2.8467,-2.8469,-2.847,-2.8526,0,-2.809,-2.8161,-2.8172,-2.8235,-2.8269,-2.8268,-2.8303,-2.8328,-2.8341,-2.8372,-2.8385,-2.842,-2.8406,-2.8419,-2.8444,-2.8459,-2.8492,-2.8455,-2.8496,-2.8497,-2.8487,-2.8554,-2.8561,-2.8613,-2.8534,-2.8535,-2.8536,0,-2.8166,-2.8198,-2.8264,-2.8295,-2.831,-2.8341,-2.8376,-2.8405,-2.8433,-2.8441,-2.8464,-2.8466,-2.8506,-2.8483,-2.8537,-2.8512,-2.8529,-2.8539,-2.8541,-2.8544,-2.8518,-2.8558,-2.863,-2.8637,-2.8548,-2.8547,-2.8546,0,-2.8205,-2.8264,-2.8311,-2.8327,-2.8365,-2.8386,-2.8403,-2.843,-2.8451,-2.8481,-2.8494,-2.8528,-2.8546,-2.8571,-2.8581,-2.8564,-2.8633,-2.8612,-2.8639,-2.8639,-2.8653,-2.8652,-2.8728,-2.8666,-2.8666,-2.8666,-2.8666,0,-2.8267,-2.8307,-2.8329,-2.8358,-2.8402,-2.8413,-2.8457,-2.8472,-2.8496,-2.8526,-2.8527,-2.8556,-2.8568,-2.8598,-2.8606,-2.8648,-2.8657,-2.8663,-2.8664,-2.8662,-2.8661,-2.8672,-2.8669,-2.8668,-2.8668,-2.8667,-2.8667,0,-2.8317,-2.8334,-2.8385,-2.8416,-2.8425,-2.8456,-2.8483,-2.851,-2.8523,-2.8561,-2.8571,-2.8591,-2.8626,-2.8639,-2.8681,-2.8686,-2.8735,-2.8734,-2.8726,-2.8726,-2.8752,-2.8748,-2.8836,-2.8848,-2.878,-2.8781,-2.8781,0,-2.8356,-2.8387,-2.8422,-2.8443,-2.846,-2.8494,-2.8516,-2.8528,-2.855,-2.8584,-2.8607,-2.8642,-2.8671,-2.8727,-2.8744,-2.8776,-2.8775,-2.8804,-2.878,-2.8776,-2.8774,-2.8771,-2.8774,-2.8808,-2.8808,-2.8809,-2.8809,0,-2.8421,-2.8427,-2.846,-2.8495,-2.8521,-2.8549,-2.8576,-2.8592,-2.8608,-2.8633,-2.8669,-2.8692,-2.8735,-2.877,-2.8803,-2.8818,-2.8816,-2.8817,-2.8825,-2.8822,-2.8815,-2.8818,-2.8736,-2.8815,-2.8814,-2.8814,-2.8813,-2.8813,-2.8465,-2.8492,-2.8521,-2.8557,-2.8578,-2.8603,-2.863,-2.8647,-2.8678,-2.8715,-2.8719,-2.8758,-2.8784,-2.8828,-2.8845,-2.8874,-2.8866,-2.8878,-2.888,-2.8883,-2.8884,-2.8812,-2.888,-2.888,-2.888,-2.888,-2.888,0,-2.853,-2.8548,-2.8581,-2.8619,-2.8646,-2.8643,-2.8673,-2.8695,-2.873,-2.8755,-2.8783,-2.8824,-2.8858,-2.8877,-2.891,-2.893,-2.8929,-2.8938,-2.8936,-2.8939,-2.889,-2.8879,-2.8937,-2.8937,-2.8937,-2.8937,-2.8937,-2.8937,-2.8566,-2.8612,-2.8621,-2.8676,-2.8694,-2.8733,-2.875,-2.8772,-2.8792,-2.8839,-2.8866,-2.888,-2.8902,-2.8936,-2.8966,-2.8971,-2.8982,-2.8991,-2.8995,-2.8949,-2.8943,-2.8937,-2.8927,-2.8994,-2.8994,-2.9041,-2.9042,-2.9042]}]]